EST,Max TemperatureF,Mean TemperatureF,Min TemperatureF,Max Dew PointF,MeanDew PointF,Min DewpointF,Max Humidity, Mean Humidity, Min Humidity, Max Sea Level PressureIn, Mean Sea Level PressureIn, Min Sea Level PressureIn, Max VisibilityMiles, Mean VisibilityMiles, Min VisibilityMiles, Max Wind SpeedMPH, Mean Wind SpeedMPH, Max Gust SpeedMPH,PrecipitationIn, CloudCover, Events, WindDirDegrees
2013-2-1,21,16,10,10,4,1,73,62,49,30.28,30.11,29.80,10,10,3,22,13,28,0.00,6,,254
2013-2-2,21,14,8,18,11,1,86,79,67,30.27,30.07,29.94,10,6,1,13,8,22,0.01,4,,204
2013-2-3,23,20,17,19,15,9,93,79,63,29.98,29.88,29.81,10,6,1,15,5,23,0.01,5,,259
2013-2-4,24,20,15,21,15,7,93,79,68,30.02,29.94,29.84,10,6,1,15,9,22,0.05,6,,223
2013-2-5,28,26,23,25,22,19,93,86,80,29.92,29.86,29.80,8,4,1,9,2,,0.02,7,,237
2013-2-6,28,20,10,25,16,7,93,72,47,30.31,30.17,29.92,10,8,1,9,6,,0.00,4,,268
2013-2-7,39,26,14,25,18,5,79,67,56,30.28,30.17,29.96,10,10,10,14,6,18,0.00,2,,96
2013-2-8,35,29,23,34,25,14,93,79,68,30.13,29.91,29.79,10,8,2,20,10,30,0.14,6,,223
2013-2-9,30,22,15,16,14,9,86,69,47,30.37,30.31,30.15,10,10,2,16,7,25,0.00,4,,304
2013-2-10,44,28,12,21,16,9,85,54,34,30.33,30.17,29.96,10,10,10,13,7,17,0.00,3,,104
2013-2-11,57,46,35,45,33,21,93,69,41,29.94,29.81,29.66,10,9,2,30,12,44,0.06,7,,217
2013-2-12,35,30,24,23,21,18,80,66,56,30.06,29.98,29.90,10,10,9,18,11,29,0.00,5,,269
2013-2-13,37,28,19,28,22,16,93,78,60,29.91,29.78,29.68,10,8,2,8,4,,0.00,1,,352
2013-2-14,39,32,24,34,27,19,93,82,70,29.93,29.89,29.84,10,7,2,13,6,17,0.04,6,,196
2013-2-15,37,30,24,32,24,16,93,70,52,30.05,29.99,29.89,10,9,1,13,9,22,0.00,6,,266
2013-2-16,28,22,17,18,15,10,86,70,51,30.04,29.97,29.90,10,10,5,10,3,20,0.00,5,,292
2013-2-17,21,18,14,16,8,1,93,67,49,30.22,30.03,29.90,10,7,0,14,6,24,0.00,6,,289
2013-2-18,41,24,6,27,11,1,85,61,41,30.26,30.13,29.87,10,10,6,13,3,16,0.00,0,,148
2013-2-19,42,32,21,37,27,12,93,75,53,29.91,29.77,29.65,10,9,2,24,12,37,0.14,7,,220
2013-2-20,21,18,15,16,9,7,86,68,58,30.18,30.06,29.91,10,8,1,22,12,29,0.00,7,,265
2013-2-21,24,20,15,16,11,9,86,71,54,30.33,30.24,30.14,10,8,1,10,7,,0.00,4,,294
2013-2-22,32,26,19,30,22,10,93,80,64,30.25,30.07,29.99,10,10,5,18,11,24,0.02,6,,91
2013-2-23,39,34,30,34,29,25,93,84,70,29.99,29.91,29.85,10,8,1,7,4,,0.00,7,,45
2013-2-24,30,27,24,25,21,18,86,75,60,30.12,29.99,29.86,10,8,3,12,4,18,0.00,6,,275
2013-2-25,39,28,17,25,20,16,93,71,48,30.22,30.15,30.06,10,8,2,10,2,,0.07,1,,71
2013-2-26,39,34,28,32,25,19,87,72,52,30.07,29.84,29.58,10,9,2,21,12,31,0.80,4,,90
2013-2-27,42,37,32,36,33,30,93,88,70,29.67,29.61,29.55,10,9,5,14,9,22,0.25,8,,213
2013-2-28,33,32,30,30,29,27,93,86,80,29.79,29.66,29.60,10,6,1,12,8,17,0.08,8,,244